Location: Bennemühlen
(52.5740°N, 9.7135°E)
Time: 09:44:14
(UTC+00:00)

Transit 4A - All Passes

Search period start: 19 February 2026 00:00
Search period end: 01 March 2026 00:00
Orbit: 865 x 976 km, 66.8° (Epoch: 18 February)

Date Brightness Start Highest point End Pass type
(mag) Time Alt. Az. Time Alt. Az. Time Alt. Az.
19 Feb - 02:22:25 10° S 02:27:40 35° ESE 02:33:04 10° NE visible
19 Feb - 04:07:52 10° SW 04:13:44 61° NW 04:19:47 10° NE visible
19 Feb - 05:56:17 10° WNW 06:01:16 26° NNW 06:06:22 10° NE visible
19 Feb - 07:44:58 10° NW 07:49:39 22° N 07:54:25 10° ENE daylight
19 Feb - 09:31:57 10° NW 09:37:42 38° NNE 09:43:34 10° ESE daylight
19 Feb - 11:18:18 10° NW 11:24:30 71° SW 11:30:49 10° SSE daylight
19 Feb - 13:06:05 10° WNW 13:09:51 17° WSW 13:13:40 10° SW daylight
20 Feb - 02:30:38 10° S 02:36:15 48° ESE 02:42:02 10° NE visible
20 Feb - 04:16:54 10° WSW 04:22:38 48° NW 04:28:34 10° NE visible
20 Feb - 06:05:39 10° WNW 06:10:26 24° NNW 06:15:20 10° NE daylight
20 Feb - 07:54:00 10° NW 07:58:51 24° NNE 08:03:47 10° ENE daylight
20 Feb - 09:40:42 10° NW 09:46:40 47° NE 09:52:46 10° ESE daylight
20 Feb - 11:27:08 10° NW 11:33:11 54° WSW 11:39:20 10° SSE daylight
20 Feb - 13:16:19 10° W 13:18:13 11° W 13:20:09 10° WSW daylight
21 Feb - 00:56:54 10° SE 00:59:45 14° ESE 01:02:38 10° ENE visible
21 Feb - 02:39:05 10° SSW 02:44:53 65° ESE 02:50:55 10° NE visible
21 Feb - 04:26:03 10° WSW 04:31:36 39° NW 04:37:21 10° NE visible
21 Feb - 06:14:58 10° WNW 06:19:37 22° N 06:24:23 10° NE daylight
21 Feb - 08:02:56 10° NW 08:08:01 26° NNE 08:13:11 10° ENE daylight
21 Feb - 09:49:27 10° NW 09:55:36 59° NE 10:01:51 10° ESE daylight
21 Feb - 11:36:03 10° NW 11:41:48 40° WSW 11:47:39 10° S daylight
22 Feb - 01:04:01 10° SSE 01:08:07 20° ESE 01:12:19 10° ENE visible
22 Feb - 02:47:41 10° SW 02:53:37 86° SE 02:59:44 10° NE visible
22 Feb - 04:35:17 10° W 04:40:38 33° NNW 04:46:10 10° NE visible
22 Feb - 06:24:14 10° NW 06:28:50 22° N 06:33:31 10° NE daylight
22 Feb - 08:11:49 10° NW 08:17:09 29° NNE 08:22:34 10° E daylight
22 Feb - 09:58:13 10° NW 10:04:28 74° NE 10:10:49 10° SE daylight
22 Feb - 11:45:04 10° NW 11:50:22 30° WSW 11:55:44 10° S daylight
23 Feb - 01:11:42 10° SSE 01:16:35 28° ESE 01:21:35 10° NE visible
23 Feb - 02:56:28 10° SW 03:02:24 74° NW 03:08:32 10° NE visible
23 Feb - 04:44:35 10° W 04:49:43 28° NNW 04:55:01 10° NE visible
23 Feb - 06:33:26 10° NW 06:38:03 22° N 06:42:45 10° NE daylight
23 Feb - 08:20:38 10° NW 08:26:14 34° NNE 08:31:55 10° E daylight
23 Feb - 10:07:00 10° NW 10:13:16 86° SW 10:19:38 10° SE daylight
23 Feb - 11:54:16 10° WNW 11:58:51 22° WSW 12:03:29 10° SSW daylight
24 Feb - 01:19:44 10° S 01:25:06 38° ESE 01:30:38 10° NE visible
24 Feb - 03:05:24 10° WSW 03:11:15 58° NW 03:17:19 10° NE visible
24 Feb - 04:53:55 10° WNW 04:58:51 25° NNW 05:03:55 10° NE visible
24 Feb - 06:42:31 10° NW 06:47:16 22° N 06:52:05 10° ENE daylight
24 Feb - 08:29:25 10° NW 08:35:15 40° NE 08:41:12 10° ESE daylight
24 Feb - 10:15:48 10° NW 10:22:00 67° WSW 10:28:18 10° SSE daylight
24 Feb - 12:03:49 10° WNW 12:07:16 15° WSW 12:10:46 10° SW daylight
24 Feb - 23:48:22 10° ESE 23:48:48 10° E 23:49:14 10° E visible
25 Feb - 01:28:01 10° SSW 01:33:42 52° ESE 01:39:34 10° NE visible
25 Feb - 03:14:27 10° WSW 03:20:10 46° NW 03:26:05 10° NE visible
25 Feb - 05:03:16 10° WNW 05:08:02 23° NNW 05:12:54 10° NE visible
25 Feb - 06:51:31 10° NW 06:56:27 24° NNE 07:01:27 10° ENE daylight
25 Feb - 08:38:11 10° NW 08:44:13 49° NE 08:50:22 10° ESE daylight
25 Feb - 10:24:39 10° NW 10:30:40 50° WSW 10:36:45 10° SSE daylight
25 Feb - 12:14:44 10° W 12:15:37 10° W 12:16:29 10° WSW daylight
25 Feb - 23:53:53 10° SE 23:57:08 15° ESE 00:00:27 10° ENE visible
26 Feb - 01:36:30 10° SSW 01:42:22 70° SE 01:48:26 10° NE visible
26 Feb - 03:23:37 10° W 03:29:09 38° NNW 03:34:52 10° NE visible
26 Feb - 05:12:34 10° WNW 05:17:14 22° N 05:21:58 10° NE visible
26 Feb - 07:00:27 10° NW 07:05:37 27° NNE 07:10:51 10° ENE daylight
26 Feb - 08:46:57 10° NW 08:53:08 62° NE 08:59:26 10° SE daylight
26 Feb - 10:33:35 10° NW 10:39:16 37° WSW 10:45:01 10° S daylight
27 Feb - 00:01:11 10° SSE 00:05:32 22° ESE 00:09:58 10° ENE visible
27 Feb - 01:45:10 10° SW 01:51:05 89° WNW 01:57:15 10° NE visible
27 Feb - 03:32:53 10° W 03:38:12 32° NNW 03:43:41 10° NE visible
27 Feb - 05:21:49 10° NW 05:26:26 22° N 05:31:08 10° NE visible
27 Feb - 07:09:19 10° NW 07:14:44 30° NNE 07:20:14 10° E daylight
27 Feb - 08:55:43 10° NW 09:01:59 79° NE 09:08:22 10° SE daylight
27 Feb - 10:42:39 10° NW 10:47:48 27° WSW 10:53:02 10° SSW daylight
28 Feb - 00:08:58 10° S 00:14:00 30° ESE 00:19:10 10° NE visible
28 Feb - 01:53:59 10° SW 01:59:54 70° NW 02:06:02 10° NE visible
28 Feb - 03:42:12 10° W 03:47:18 28° NNW 03:52:33 10° NE visible
28 Feb - 05:31:00 10° NW 05:35:40 22° N 05:40:25 10° NE visible
28 Feb - 07:18:08 10° NW 07:23:48 35° NNE 07:29:33 10° E daylight
28 Feb - 09:04:29 10° NW 09:10:45 82° SW 09:17:08 10° SSE daylight
28 Feb - 10:51:54 10° WNW 10:56:17 20° WSW 11:00:41 10° SSW daylight
